CQ0XPA-11 Weather Reports


time (UTC)temp
C
wind
direction
speed
KPH
gust
KPH
rain 1hr
cm
rain 24hr
cm
rain mn
cm
humidity
%
barometer
mb
20180218181649 13 45 0.0 0.0 0.00 0.00 0.00 42 1015.1
20180218181448 13 45 0.0 0.0 0.00 0.00 0.00 42 1015.1
20180218181245 13 45 0.0 0.0 0.00 0.00 0.00 42 1015.0
20180218181044 13 45 0.0 0.0 0.00 0.00 0.00 41 1015.0
20180218180841 14 45 0.0 0.0 0.00 0.00 0.00 41 1015.1
20180218180640 14 45 0.0 0.0 0.00 0.00 0.00 41 1015.0
20180218180437 14 45 0.0 0.0 0.00 0.00 0.00 40 1014.9
20180218180236 14 90 0.0 0.0 0.00 0.00 0.00 40 1014.9
20180218180033 15 90 0.0 0.0 0.00 0.00 0.00 40 1015.0
20180218175831 15 90 0.0 0.0 0.00 0.00 0.00 39 1014.9
20180218175629 15 90 0.0 1.6 0.00 0.00 0.00 39 1015.0
20180218175427 15 90 0.0 1.6 0.00 0.00 0.00 39 1014.9
20180218175225 15 135 1.6 1.6 0.00 0.00 0.00 38 1015.0
20180218175023 15 135 0.0 1.6 0.00 0.00 0.00 38 1014.9
20180218174820 16 90 0.0 1.6 0.00 0.00 0.00 38 1015.0
20180218174619 16 180 0.0 1.6 0.00 0.00 0.00 38 1015.0
20180218174416 16 180 0.0 1.6 0.00 0.00 0.00 38 1014.9
20180218174215 16 0 0.0 0.0 0.00 0.00 0.00 37 1015.0
20180218174012 16 135 0.0 0.0 0.00 0.00 0.00 38 1015.0
20180218173811 16 180 0.0 0.0 0.00 0.00 0.00 37 1015.0
20180218173608 16 180 0.0 1.6 0.00 0.00 0.00 37 1014.9
20180218173407 17 135 0.0 1.6 0.00 0.00 0.00 36 1015.0
20180218173202 17 90 0.0 1.6 0.00 0.00 0.00 36 1014.9
20180218173001 17 180 0.0 1.6 0.00 0.00 0.00 36 1014.9
20180218172758 17 45 0.0 1.6 0.00 0.00 0.00 36 1014.9
20180218172558 17 270 0.0 1.6 0.00 0.00 0.00 36 1014.8
20180218172354 17 180 0.0 1.6 0.00 0.00 0.00 35 1015.0
20180218172153 17 180 1.6 1.6 0.00 0.00 0.00 35 1014.8
20180218171952 17 180 0.0 3.2 0.00 0.00 0.00 35 1014.9
20180218171546 17 123 1.6 3.2 0.00 0.00 0.00 35 1014.8
20180218171346 17 157 1.6 1.6 0.00 0.00 0.00 35 1014.8
20180218171142 17 180 0.0 1.6 0.00 0.00 0.00 35 1014.8
20180218170942 18 112 0.0 1.6 0.00 0.00 0.00 35 1014.9
20180218170739 18 315 0.0 4.8 0.00 0.00 0.00 35 1014.8
20180218170538 18 135 1.6 4.8 0.00 0.00 0.00 35 1014.9
20180218170333 18 135 0.0 3.2 0.00 0.00 0.00 35 1014.8
20180218165728 18 270 0.0 11.3 0.00 0.00 0.00 34 1014.9
20180218165528 18 270 0.0 11.3 0.00 0.00 0.00 34 1015.0
20180218165324 18 225 8.0 8.0 0.00 0.00 0.00 35 1014.9
20180218165123 19 270 0.0 4.8 0.00 0.00 0.00 34 1014.9
20180218164921 19 270 1.6 11.3 0.00 0.00 0.00 35 1015.0
20180218164719 19 247 0.0 11.3 0.00 0.00 0.00 34 1015.0
20180218164517 19 135 1.6 6.4 0.00 0.00 0.00 34 1015.0
20180218164314 19 56 1.6 6.4 0.00 0.00 0.00 34 1015.0
20180218164113 19 270 3.2 4.8 0.00 0.00 0.00 34 1015.0
20180218163910 19 180 1.6 4.8 0.00 0.00 0.00 35 1015.0
20180218163709 19 135 1.6 8.0 0.00 0.00 0.00 34 1014.9
20180218163506 19 180 1.6 8.0 0.00 0.00 0.00 34 1014.9
20180218163306 20 270 1.6 6.4 0.00 0.00 0.00 33 1015.0
20180218163103 20 90 1.6 4.8 0.00 0.00 0.00 35 1015.1
20180218162859 20 270 3.2 4.8 0.00 0.00 0.00 34 1015.0
20180218162656 20 45 1.6 6.4 0.00 0.00 0.00 34 1015.0
20180218162456 20 270 4.8 6.4 0.00 0.00 0.00 34 1015.0
20180218162252 20 270 6.4 6.4 0.00 0.00 0.00 34 1015.0
20180218162052 20 270 3.2 4.8 0.00 0.00 0.00 34 1015.0
20180218161848 20 0 1.6 4.8 0.00 0.00 0.00 34 1015.0
20180218161646 20 180 3.2 3.2 0.00 0.00 0.00 35 1015.0
20180218161444 20 180 1.6 4.8 0.00 0.00 0.00 35 1014.9
20180218161242 20 157 0.0 4.8 0.00 0.00 0.00 34 1015.1
20180218161041 20 0 0.0 8.0 0.00 0.00 0.00 34 1014.9
20180218160840 20 270 3.2 8.0 0.00 0.00 0.00 34 1015.0
20180218160637 20 281 3.2 6.4 0.00 0.00 0.00 35 1015.0
20180218160434 19 270 1.6 4.8 0.00 0.00 0.00 34 1015.1
20180218160233 19 225 1.6 3.2 0.00 0.00 0.00 34 1015.1
20180218160031 19 78 1.6 6.4 0.00 0.00 0.00 34 1015.1
20180218155829 19 270 1.6 6.4 0.00 0.00 0.00 34 1015.0
20180218155626 19 45 1.6 8.0 0.00 0.00 0.00 33 1015.1
20180218155425 19 0 6.4 8.0 0.00 0.00 0.00 31 1015.0
20180218155221 20 225 1.6 6.4 0.00 0.00 0.00 35 1015.0
20180218153158 20 225 1.6 6.4 0.00 0.00 0.00 34 1015.0
20180218152955 20 135 3.2 4.8 0.00 0.00 0.00 35 1015.1
20180218152755 20 157 1.6 4.8 0.00 0.00 0.00 34 1015.0
20180218152551 20 157 4.8 9.7 0.00 0.00 0.00 33 1015.1
20180218152350 20 90 1.6 9.7 0.00 0.00 0.00 34 1015.1
20180218152147 20 180 1.6 4.8 0.00 0.00 0.00 35 1015.2
20180218151945 19 180 0.0 9.7 0.00 0.00 0.00 35 1015.2
20180218151743 20 225 1.6 9.7 0.00 0.00 0.00 34 1015.2
20180218151541 20 112 1.6 8.0 0.00 0.00 0.00 34 1015.3
20180218151339 20 225 8.0 9.7 0.00 0.00 0.00 34 1015.1
20180218151137 20 180 6.4 9.7 0.00 0.00 0.00 35 1015.3
20180218150935 20 90 1.6 8.0 0.00 0.00 0.00 34 1015.3
20180218150733 20 90 1.6 4.8 0.00 0.00 0.00 34 1015.3
20180218150530 20 157 1.6 8.0 0.00 0.00 0.00 34 1015.3
20180218150329 20 270 3.2 8.0 0.00 0.00 0.00 33 1015.3
20180218150126 20 270 3.2 8.0 0.00 0.00 0.00 34 1015.3
20180218145926 20 180 8.0 9.7 0.00 0.00 0.00 34 1015.2
20180218145722 20 270 1.6 9.7 0.00 0.00 0.00 34 1015.3
20180218145521 20 270 3.2 8.0 0.00 0.00 0.00 34 1015.3
20180218145318 20 225 0.0 8.0 0.00 0.00 0.00 34 1015.3
20180218145117 20 225 3.2 6.4 0.00 0.00 0.00 33 1015.2
20180218144914 20 135 1.6 4.8 0.00 0.00 0.00 33 1015.4
20180218144712 20 157 3.2 6.4 0.00 0.00 0.00 33 1015.3
20180218144308 20 303 1.6 8.0 0.00 0.00 0.00 33 1015.5
20180218144106 20 180 0.0 8.0 0.00 0.00 0.00 33 1015.4
20180218143904 20 157 4.8 8.0 0.00 0.00 0.00 34 1015.5
20180218143702 20 157 4.8 8.0 0.00 0.00 0.00 31 1015.5
20180218143500 20 270 1.6 4.8 0.00 0.00 0.00 33 1015.5
20180218143257 20 270 4.8 4.8 0.00 0.00 0.00 32 1015.6
20180218143056 20 180 1.6 8.0 0.00 0.00 0.00 35 1015.6
20180218142853 20 270 3.2 8.0 0.00 0.00 0.00 33 1015.5
20180218142449 20 135 1.6 4.8 0.00 0.00 0.00 34 1015.6
20180218142247 20 135 3.2 4.8 0.00 0.00 0.00 33 1015.7
20180218142045 20 270 3.2 9.7 0.00 0.00 0.00 34 1015.6
20180218141843 20 180 3.2 9.7 0.00 0.00 0.00 33 1015.7
20180218141641 20 45 3.2 4.8 0.00 0.00 0.00 33 1015.6
20180218141439 20 270 3.2 4.8 0.00 0.00 0.00 33 1015.6
20180218141237 20 157 3.2 6.4 0.00 0.00 0.00 35 1015.7
20180218141035 20 123 4.8 6.4 0.00 0.00 0.00 34 1015.7
20180218140832 20 180 1.6 4.8 0.00 0.00 0.00 34 1015.6
20180218140631 20 180 1.6 6.4 0.00 0.00 0.00 33 1015.9
20180218140026 20 270 4.8 6.4 0.00 0.00 0.00 34 1015.8
20180218135823 20 270 6.4 6.4 0.00 0.00 0.00 34 1015.9
20180218135620 20 45 3.2 6.4 0.00 0.00 0.00 32 1015.9
20180218135420 20 270 4.8 6.4 0.00 0.00 0.00 35 1015.9
20180218135216 20 270 3.2 11.3 0.00 0.00 0.00 35 1015.9
20180218135014 20 180 1.6 11.3 0.00 0.00 0.00 32 1016.0
20180218134812 20 225 1.6 8.0 0.00 0.00 0.00 35 1016.0
20180218134610 19 270 6.4 8.0 0.00 0.00 0.00 34 1016.2
20180218134408 19 270 8.0 9.7 0.00 0.00 0.00 34 1016.0
20180218134206 19 270 1.6 9.7 0.00 0.00 0.00 33 1016.0
20180218134005 20 135 4.8 6.4 0.00 0.00 0.00 35 1016.0
20180218133802 20 180 3.2 8.0 0.00 0.00 0.00 34 1016.0
20180218133600 20 270 3.2 8.0 0.00 0.00 0.00 34 1016.0
20180218133358 20 90 4.8 6.4 0.00 0.00 0.00 35 1016.1
20180218133155 20 180 3.2 9.7 0.00 0.00 0.00 35 1016.1
20180218132954 20 135 4.8 9.7 0.00 0.00 0.00 35 1016.1
20180218132751 20 157 1.6 8.0 0.00 0.00 0.00 34 1016.2
20180218132550 20 90 6.4 8.0 0.00 0.00 0.00 36 1016.2
20180218132347 20 225 1.6 8.0 0.00 0.00 0.00 36 1016.1
20180218132146 20 157 3.2 8.0 0.00 0.00 0.00 36 1016.1
20180218131943 20 90 4.8 6.4 0.00 0.00 0.00 34 1016.2
20180218131741 19 225 4.8 4.8 0.00 0.00 0.00 37 1016.2
20180218131539 19 270 1.6 3.2 0.00 0.00 0.00 36 1016.1
20180218131337 19 90 1.6 8.0 0.00 0.00 0.00 36 1016.3
20180218131136 19 270 3.2 8.0 0.00 0.00 0.00 35 1016.3
20180218130933 19 180 6.4 8.0 0.00 0.00 0.00 38 1016.4
20180218130730 19 270 1.6 6.4 0.00 0.00 0.00 37 1016.5
20180218130531 19 270 3.2 8.0 0.00 0.00 0.00 34 1016.4
20180218130326 19 180 4.8 8.0 0.00 0.00 0.00 35 1016.3
20180218130126 18 303 4.8 6.4 0.00 0.00 0.00 37 1016.3
20180218125922 19 315 4.8 6.4 0.00 0.00 0.00 34 1016.5
20180218125722 19 90 3.2 4.8 0.00 0.00 0.00 36 1016.6
20180218125519 19 180 1.6 4.8 0.00 0.00 0.00 37 1016.7
20180218125316 18 180 4.8 4.8 0.00 0.00 0.00 39 1016.6
20180218125115 18 157 1.6 6.4 0.00 0.00 0.00 38 1016.7
20180218124912 18 67 1.6 6.4 0.00 0.00 0.00 37 1016.8
20180218124711 18 281 6.4 6.4 0.00 0.00 0.00 36 1016.8
20180218124511 18 90 3.2 6.4 0.00 0.00 0.00 36 1016.8
20180218123902 18 315 0.0 6.4 0.00 0.00 0.00 39 1016.9
20180218123700 18 315 1.6 8.0 0.00 0.00 0.00 40 1017.0
20180218123459 18 180 3.2 8.0 0.00 0.00 0.00 39 1016.9
20180218123256 18 315 3.2 8.0 0.00 0.00 0.00 37 1016.8
20180218123053 18 180 3.2 8.0 0.00 0.00 0.00 38 1016.9
20180218122852 18 315 4.8 8.0 0.00 0.00 0.00 40 1016.9
20180218122649 18 180 1.6 8.0 0.00 0.00 0.00 39 1017.0
20180218122448 18 281 1.6 6.4 0.00 0.00 0.00 41 1017.0
20180218122245 18 315 3.2 4.8 0.00 0.00 0.00 43 1016.9
20180218122043 18 90 3.2 4.8 0.00 0.00 0.00 43 1017.1
20180218121841 18 315 0.0 4.8 0.00 0.00 0.00 43 1017.1
20180218121639 18 315 1.6 8.0 0.00 0.00 0.00 42 1017.0
20180218121437 18 90 6.4 8.0 0.00 0.00 0.00 38 1017.0
20180218121237 18 270 3.2 6.4 0.00 0.00 0.00 45 1017.1
20180218121033 17 112 0.0 4.8 0.00 0.00 0.00 44 1017.2
20180218120833 17 315 4.8 4.8 0.00 0.00 0.00 44 1017.2
20180218120630 17 315 1.6 6.4 0.00 0.00 0.00 44 1017.2
20180218120427 17 45 4.8 9.7 0.00 0.00 0.00 42 1017.2
20180218120224 17 303 9.7 11.3 0.00 0.00 0.00 45 1017.2
20180218120023 18 270 1.6 11.3 0.00 0.00 0.00 43 1017.3
20180218115820 18 90 6.4 11.3 0.00 0.00 0.00 41 1017.4
20180218115619 17 135 1.6 3.2 0.00 0.00 0.00 47 1017.4
20180218115416 17 146 0.0 6.4 0.00 0.00 0.00 47 1017.4
20180218115214 17 90 3.2 6.4 0.00 0.00 0.00 46 1017.4
20180218115012 17 135 1.6 6.4 0.00 0.00 0.00 48 1017.4
20180218114810 17 315 4.8 6.4 0.00 0.00 0.00 47 1017.4
20180218114608 17 315 1.6 6.4 0.00 0.00 0.00 48 1017.5
20180218114406 17 180 4.8 6.4 0.00 0.00 0.00 50 1017.5
20180218114204 17 180 3.2 9.7 0.00 0.00 0.00 49 1017.4
20180218114004 17 90 6.4 9.7 0.00 0.00 0.00 44 1017.4
20180218113759 17 180 3.2 4.8 0.00 0.00 0.00 49 1017.5
20180218113558 16 315 3.2 9.7 0.00 0.00 0.00 49 1017.5
20180218113355 16 270 3.2 9.7 0.00 0.00 0.00 49 1017.6
20180218113154 16 135 9.7 14.5 0.00 0.00 0.00 50 1017.5
20180218112951 16 157 3.2 14.5 0.00 0.00 0.00 50 1017.6
20180218112750 16 146 6.4 6.4 0.00 0.00 0.00 51 1017.6
20180218112547 16 22 3.2 9.7 0.00 0.00 0.00 49 1017.7
20180218112345 16 315 3.2 9.7 0.00 0.00 0.00 50 1017.6
20180218112143 16 22 4.8 9.7 0.00 0.00 0.00 44 1017.6
20180218111941 16 180 3.2 8.0 0.00 0.00 0.00 52 1017.5
20180218111739 16 135 1.6 8.0 0.00 0.00 0.00 53 1017.7
20180218111539 16 180 4.8 6.4 0.00 0.00 0.00 53 1017.7
20180218111335 16 270 3.2 6.4 0.00 0.00 0.00 52 1017.6
20180218111133 16 90 1.6 9.7 0.00 0.00 0.00 53 1017.6
20180218110930 15 180 3.2 9.7 0.00 0.00 0.00 53 1017.8
20180218110731 15 326 3.2 8.0 0.00 0.00 0.00 52 1017.7
20180218110526 15 281 4.8 8.0 0.00 0.00 0.00 54 1017.7
20180218110326 15 270 1.6 6.4 0.00 0.00 0.00 54 1017.8
20180218110124 15 135 3.2 6.4 0.00 0.00 0.00 56 1017.9
20180218105922 15 281 3.2 4.8 0.00 0.00 0.00 56 1017.9
20180218105718 15 270 1.6 8.0 0.00 0.00 0.00 56 1017.9
20180218105516 15 180 1.6 8.0 0.00 0.00 0.00 58 1017.8
20180218105314 15 157 8.0 8.0 0.00 0.00 0.00 59 1017.9
20180218105113 14 0 1.6 4.8 0.00 0.00 0.00 58 1017.9
20180218104910 14 0 0.0 3.2 0.00 0.00 0.00 60 1018.0
20180218104708 13 90 1.6 4.8 0.00 0.00 0.00 61 1018.0
20180218104506 13 0 1.6 4.8 0.00 0.00 0.00 62 1018.1
20180218104102 13 157 1.6 6.4 0.00 0.00 0.00 60 1018.0
20180218103900 13 270 3.2 6.4 0.00 0.00 0.00 61 1018.1
20180218103657 12 157 4.8 6.4 0.00 0.00 0.00 60 1018.1
20180218103456 12 157 4.8 4.8 0.00 0.00 0.00 61 1018.1
20180218103253 12 0 1.6 4.8 0.00 0.00 0.00 63 1018.1
20180218103052 12 90 1.6 6.4 0.00 0.00 0.00 63 1018.2
20180218102849 12 315 1.6 6.4 0.00 0.00 0.00 64 1018.1
20180218102647 12 157 4.8 9.7 0.00 0.00 0.00 61 1018.2
20180218102445 11 303 3.2 9.7 0.00 0.00 0.00 62 1018.2
20180218102243 11 90 3.2 6.4 0.00 0.00 0.00 65 1018.2
20180218102041 11 90 3.2 8.0 0.00 0.00 0.00 65 1018.3
20180218101839 11 270 1.6 8.0 0.00 0.00 0.00 67 1018.2
20180218101637 11 270 3.2 11.3 0.00 0.00 0.00 67 1018.1
20180218101435 11 90 4.8 11.3 0.00 0.00 0.00 64 1018.2
20180218101232 11 157 4.8 11.3 0.00 0.00 0.00 65 1018.2
20180218101031 11 90 4.8 8.0 0.00 0.00 0.00 67 1018.1
20180218100828 11 90 3.2 8.0 0.00 0.00 0.00 68 1018.2
20180218100627 10 90 3.2 4.8 0.00 0.00 0.00 69 1018.2
20180218100424 10 90 1.6 6.4 0.00 0.00 0.00 71 1018.3
20180218100223 10 157 1.6 6.4 0.00 0.00 0.00 70 1018.2
20180218100021 10 315 1.6 6.4 0.00 0.00 0.00 72 1018.2
20180218095819 10 90 3.2 6.4 0.00 0.00 0.00 72 1018.2
20180218095414 10 90 6.4 6.4 0.00 0.00 0.00 71 1018.2
20180218095212 10 0 1.6 6.4 0.00 0.00 0.00 73 1018.2
20180218095011 10 157 1.6 6.4 0.00 0.00 0.00 76 1018.3
20180218094808 9 270 3.2 6.4 0.00 0.00 0.00 76 1018.3
20180218094606 9 157 0.0 6.4 0.00 0.00 0.00 76 1018.3
20180218094404 9 270 1.6 4.8 0.00 0.00 0.00 76 1018.3
20180218094202 8 292 0.0 6.4 0.00 0.00 0.00 78 1018.4
20180218093959 8 270 0.0 6.4 0.00 0.00 0.00 77 1018.4
20180218093758 8 90 3.2 6.4 0.00 0.00 0.00 78 1018.4
20180218093555 8 123 0.0 6.4 0.00 0.00 0.00 78 1018.4
20180218093354 8 270 0.0 3.2 0.00 0.00 0.00 79 1018.3
20180218093151 8 315 0.0 4.8 0.00 0.00 0.00 80 1018.3
20180218092747 8 270 0.0 8.0 0.00 0.00 0.00 80 1018.4
20180218092545 8 90 4.8 8.0 0.00 0.00 0.00 78 1018.3
20180218092343 8 270 1.6 6.4 0.00 0.00 0.00 80 1018.3
20180218092141 7 270 3.2 8.0 0.00 0.00 0.00 81 1018.5
20180218091939 7 303 4.8 8.0 0.00 0.00 0.00 80 1018.4
20180218091737 7 90 8.0 8.0 0.00 0.00 0.00 81 1018.2
20180218091333 7 90 1.6 3.2 0.00 0.00 0.00 85 1018.2
20180218091130 7 90 3.2 4.8 0.00 0.00 0.00 85 1018.3
20180218090929 7 315 1.6 4.8 0.00 0.00 0.00 85 1018.3
20180218090727 7 270 0.0 3.2 0.00 0.00 0.00 87 1018.3
20180218090525 6 270 1.6 3.2 0.00 0.00 0.00 88 1018.3
20180218090121 6 157 3.2 4.8 0.00 0.00 0.00 89 1018.3
20180218085918 6 292 0.0 4.8 0.00 0.00 0.00 89 1018.2
20180218085716 6 0 1.6 4.8 0.00 0.00 0.00 90 1018.2
20180218085515 6 270 1.6 4.8 0.00 0.00 0.00 90 1018.4
20180218085312 5 157 3.2 4.8 0.00 0.00 0.00 92 1018.3
20180218085110 5 157 1.6 4.8 0.00 0.00 0.00 94 1018.3
20180218084908 5 157 3.2 4.8 0.00 0.00 0.00 95 1018.4
20180218084706 5 270 0.0 4.8 0.00 0.00 0.00 97 1018.3
20180218084504 5 270 0.0 1.6 0.00 0.00 0.00 99 1018.4
20180218084301 4 157 1.6 1.6 0.00 0.00 0.00 100 1018.4
20180218084100 4 270 0.0 1.6 0.00 0.00 0.00 100 1018.4
20180218083857 4 270 1.6 1.6 0.00 0.00 0.00 100 1018.3
20180218083656 3 270 1.6 1.6 0.00 0.00 0.00 100 1018.4
20180218083453 3 270 0.0 1.6 0.00 0.00 0.00 100 1018.2
20180218083252 3 157 0.0 0.0 0.00 0.00 0.00 100 1018.3
20180218083049 3 157 0.0 0.0 0.00 0.00 0.00 100 1018.2
20180218082847 3 157 0.0 0.0 0.00 0.00 0.00 100 1018.3
20180218082645 2 157 0.0 0.0 0.00 0.00 0.00 100 1018.4
20180218082446 2 90 0.0 0.0 0.00 0.00 0.00 100 1018.4
20180218082241 2 180 0.0 0.0 0.00 0.00 0.00 99 1018.3
20180218082039 2 180 0.0 0.0 0.00 0.00 0.00 99 1018.4
20180218081837 2 180 0.0 0.0 0.00 0.00 0.00 99 1018.3
20180218081635 2 180 0.0 0.0 0.00 0.00 0.00 99 1018.4
20180218081432 2 180 0.0 0.0 0.00 0.00 0.00 99 1018.3
20180218081231 2 45 0.0 0.0 0.00 0.00 0.00 99 1018.3
20180218081028 2 45 0.0 0.0 0.00 0.00 0.00 99 1018.3
20180218080827 2 45 0.0 0.0 0.00 0.00 0.00 99 1018.3
20180218080624 2 135 0.0 0.0 0.00 0.00 0.00 99 1018.2
20180218080423 2 135 0.0 0.0 0.00 0.00 0.00 99 1018.2
20180218080220 2 135 0.0 0.0 0.00 0.00 0.00 99 1018.3
20180218080018 2 270 0.0 0.0 0.00 0.00 0.00 99 1018.2
20180218075816 1 270 0.0 0.0 0.00 0.00 0.00 99 1018.2
20180218075614 1 270 0.0 0.0 0.00 0.00 0.00 99 1018.1
20180218075412 1 270 0.0 0.0 0.00 0.00 0.00 98 1018.2
20180218073755 1 315 0.0 0.0 0.00 0.00 0.00 99 1018.1
20180218073554 1 315 0.0 0.0 0.00 0.00 0.00 99 1018.0
20180218073351 1 315 0.0 0.0 0.00 0.00 0.00 98 1018.0
20180218073150 1 292 0.0 0.0 0.00 0.00 0.00 98 1018.0
20180218072947 1 90 0.0 0.0 0.00 0.00 0.00 99 1018.0
20180218072745 1 315 0.0 0.0 0.00 0.00 0.00 98 1018.1
20180218072543 1 292 0.0 0.0 0.00 0.00 0.00 98 1018.0
20180218072341 1 0 0.0 0.0 0.00 0.00 0.00 98 1018.0
20180218072139 1 180 0.0 0.0 0.00 0.00 0.00 97 1017.9
20180218071937 1 45 0.0 0.0 0.00 0.00 0.00 97 1018.0
20180218071735 1 45 0.0 0.0 0.00 0.00 0.00 97 1018.0
20180218071533 1 135 0.0 0.0 0.00 0.00 0.00 97 1018.0
20180218071330 1 0 0.0 0.0 0.00 0.00 0.00 97 1017.9
20180218071129 1 0 0.0 0.0 0.00 0.00 0.00 97 1018.0
20180218070926 1 0 0.0 0.0 0.00 0.00 0.00 97 1017.8
20180218070725 1 0 0.0 0.0 0.00 0.00 0.00 97 1017.8
20180218070522 1 0 0.0 0.0 0.00 0.00 0.00 97 1017.8
20180218070322 1 0 0.0 0.0 0.00 0.00 0.00 97 1017.8
20180218070118 1 0 0.0 0.0 0.00 0.00 0.00 97 1017.8
20180218065916 1 0 0.0 0.0 0.00 0.00 0.00 97 1017.8
20180218065714 1 0 0.0 0.0 0.00 0.00 0.00 97 1017.8
20180218065512 1 0 0.0 0.0 0.00 0.00 0.00 97 1017.8
20180218065310 1 0 0.0 0.0 0.00 0.00 0.00 97 1017.8
20180218065108 1 0 0.0 0.0 0.00 0.00 0.00 97 1017.7
20180218064906 1 0 0.0 0.0 0.00 0.00 0.00 97 1017.7
20180218064704 1 0 0.0 0.0 0.00 0.00 0.00 97 1017.8
20180218064501 1 0 0.0 0.0 0.00 0.00 0.00 97 1017.8
20180218064300 1 0 0.0 0.0 0.00 0.00 0.00 96 1017.7
20180218064057 1 0 0.0 0.0 0.00 0.00 0.00 96 1017.8
20180218063856 1 0 0.0 0.0 0.00 0.00 0.00 96 1017.8
20180218063653 1 270 0.0 0.0 0.00 0.00 0.00 96 1017.7
20180218063451 1 270 0.0 0.0 0.00 0.00 0.00 96 1017.8
20180218063249 1 270 0.0 0.0 0.00 0.00 0.00 96 1017.7
20180218063047 1 270 0.0 0.0 0.00 0.00 0.00 96 1017.8
20180218062845 1 270 0.0 0.0 0.00 0.00 0.00 96 1017.7
20180218062643 1 270 0.0 0.0 0.00 0.00 0.00 96 1017.8
20180218062441 1 270 0.0 0.0 0.00 0.00 0.00 96 1017.9
20180218062239 1 270 0.0 0.0 0.00 0.00 0.00 96 1017.8
20180218062037 1 270 0.0 0.0 0.00 0.00 0.00 96 1017.8
20180218061835 1 180 0.0 1.6 0.00 0.00 0.00 96 1017.8
20180218061632 2 135 0.0 1.6 0.00 0.00 0.00 96 1017.7
20180218061431 2 180 0.0 0.0 0.00 0.00 0.00 96 1017.8
20180218061228 2 135 0.0 0.0 0.00 0.00 0.00 97 1017.8
20180218061027 2 270 0.0 0.0 0.00 0.00 0.00 97 1017.7
20180218060824 2 270 0.0 0.0 0.00 0.00 0.00 97 1017.9
20180218060622 2 270 0.0 0.0 0.00 0.00 0.00 97 1017.8
20180218060420 2 270 0.0 0.0 0.00 0.00 0.00 97 1017.8
20180218060218 2 270 0.0 0.0 0.00 0.00 0.00 97 1017.8
20180218060016 2 270 0.0 0.0 0.00 0.00 0.00 97 1017.9
20180218055612 2 157 0.0 0.0 0.00 0.00 0.00 96 1017.9
20180218055410 2 157 0.0 0.0 0.00 0.00 0.00 96 1017.8
20180218055208 1 157 0.0 1.6 0.00 0.00 0.00 97 1017.8
20180218055006 1 157 0.0 1.6 0.00 0.00 0.00 96 1017.8
20180218054602 1 292 0.0 0.0 0.00 0.00 0.00 95 1017.7
20180218054359 2 292 0.0 0.0 0.00 0.00 0.00 95 1017.8
20180218054158 2 180 0.0 0.0 0.00 0.00 0.00 95 1017.9
20180218053955 2 180 0.0 0.0 0.00 0.00 0.00 95 1017.8
20180218053754 2 180 0.0 0.0 0.00 0.00 0.00 95 1017.8
20180218053551 2 180 0.0 0.0 0.00 0.00 0.00 95 1017.8
20180218053349 2 180 0.0 0.0 0.00 0.00 0.00 95 1017.8
20180218053147 2 180 0.0 0.0 0.00 0.00 0.00 95 1017.9
20180218052945 2 180 0.0 0.0 0.00 0.00 0.00 95 1017.7
20180218052743 2 180 0.0 0.0 0.00 0.00 0.00 95 1017.8
20180218052541 2 180 0.0 1.6 0.00 0.00 0.00 95 1017.9
20180218052339 2 292 0.0 1.6 0.00 0.00 0.00 95 1017.8
20180218052137 2 180 0.0 1.6 0.00 0.00 0.00 95 1017.9
20180218051934 2 180 0.0 1.6 0.00 0.00 0.00 96 1017.9
20180218051733 2 135 0.0 1.6 0.00 0.00 0.00 96 1017.9
20180218051530 2 292 0.0 0.0 0.00 0.00 0.00 96 1017.9
20180218051330 2 315 0.0 0.0 0.00 0.00 0.00 96 1017.8
20180218051126 2 315 0.0 0.0 0.00 0.00 0.00 95 1017.9
20180218050925 2 45 0.0 0.0 0.00 0.00 0.00 96 1017.9
20180218050722 2 45 0.0 0.0 0.00 0.00 0.00 95 1017.9
20180218050520 2 45 0.0 0.0 0.00 0.00 0.00 95 1017.9
20180218050318 2 180 0.0 0.0 0.00 0.00 0.00 95 1017.9
20180218050116 3 180 0.0 0.0 0.00 0.00 0.00 96 1017.9
20180218045914 3 90 0.0 0.0 0.00 0.00 0.00 96 1017.9
20180218045713 3 90 0.0 0.0 0.00 0.00 0.00 96 1017.9
20180218045308 3 90 0.0 0.0 0.00 0.00 0.00 96 1017.9
20180218045105 3 90 0.0 0.0 0.00 0.00 0.00 96 1017.8
20180218044904 3 90 0.0 0.0 0.00 0.00 0.00 95 1017.9
20180218044701 3 90 0.0 0.0 0.00 0.00 0.00 95 1018.0
20180218044500 3 90 0.0 0.0 0.00 0.00 0.00 95 1018.0
20180218044056 3 90 0.0 0.0 0.00 0.00 0.00 95 1017.8
20180218043853 3 90 0.0 1.6 0.00 0.00 0.00 95 1017.9
20180218043651 3 90 0.0 3.2 0.00 0.00 0.00 95 1017.9
20180218043449 3 90 1.6 3.2 0.00 0.00 0.00 95 1017.9
20180218043247 3 90 1.6 3.2 0.00 0.00 0.00 94 1018.0
20180218043047 3 90 3.2 3.2 0.00 0.00 0.00 95 1017.9
20180218042845 3 180 0.0 1.6 0.00 0.00 0.00 95 1017.9
20180218042641 3 180 0.0 0.0 0.00 0.00 0.00 95 1017.9
20180218042439 3 180 0.0 0.0 0.00 0.00 0.00 95 1017.8
20180218042236 3 270 0.0 0.0 0.00 0.00 0.00 95 1017.8
20180218042035 3 270 0.0 0.0 0.00 0.00 0.00 95 1017.8
20180218041832 3 270 0.0 0.0 0.00 0.00 0.00 95 1017.8
20180218041631 3 270 0.0 0.0 0.00 0.00 0.00 94 1017.9
20180218041428 3 270 0.0 0.0 0.00 0.00 0.00 94 1017.8
20180218041227 3 270 0.0 0.0 0.00 0.00 0.00 95 1017.8
20180218041024 3 270 0.0 0.0 0.00 0.00 0.00 94 1018.0
20180218040822 3 270 0.0 0.0 0.00 0.00 0.00 93 1018.0
20180218040620 3 270 0.0 0.0 0.00 0.00 0.00 95 1018.0
20180218040418 3 270 0.0 1.6 0.00 0.00 0.00 94 1018.0
20180218040216 3 270 0.0 1.6 0.00 0.00 0.00 94 1018.1
20180218040015 3 270 0.0 0.0 0.00 0.00 0.00 94 1018.0
20180218035610 3 270 0.0 0.0 0.00 0.00 0.00 92 1018.0
20180218035408 3 135 0.0 0.0 0.00 0.00 0.00 92 1018.0
20180218035206 3 135 0.0 0.0 0.00 0.00 0.00 92 1018.1
20180218035005 3 270 0.0 0.0 0.00 0.00 0.00 92 1018.2
20180218034803 3 270 0.0 0.0 0.00 0.00 0.00 92 1018.1
20180218034559 3 270 0.0 0.0 0.00 0.00 0.00 91 1018.0
20180218033950 4 270 0.0 0.0 0.00 0.00 0.00 91 1018.2
20180218033748 4 270 0.0 0.0 0.00 0.00 0.00 90 1018.1
20180218033546 4 315 0.0 0.0 0.00 0.00 0.00 90 1018.1
20180218033344 4 315 0.0 0.0 0.00 0.00 0.00 90 1018.0
20180218033142 5 315 0.0 0.0 0.00 0.00 0.00 90 1018.2
20180218032940 5 315 0.0 0.0 0.00 0.00 0.00 90 1018.0
20180218032738 5 315 0.0 0.0 0.00 0.00 0.00 91 1018.1
20180218032535 5 315 0.0 0.0 0.00 0.00 0.00 91 1018.1
20180218032334 5 315 0.0 0.0 0.00 0.00 0.00 91 1018.1
20180218032135 5 315 0.0 0.0 0.00 0.00 0.00 92 1018.1
20180218031930 5 315 0.0 0.0 0.00 0.00 0.00 92 1018.1
20180218031727 5 0 0.0 0.0 0.00 0.00 0.00 92 1018.1
20180218031526 5 270 0.0 0.0 0.00 0.00 0.00 92 1018.1
20180218031323 5 135 0.0 0.0 0.00 0.00 0.00 92 1018.2
20180218031121 6 135 0.0 0.0 0.00 0.00 0.00 92 1018.2
20180218030919 6 135 0.0 0.0 0.00 0.00 0.00 92 1018.3
20180218030717 6 135 0.0 0.0 0.00 0.00 0.00 92 1018.2
20180218030515 6 180 0.0 0.0 0.00 0.00 0.00 92 1018.3
20180218030313 6 180 0.0 0.0 0.00 0.00 0.00 92 1018.3
20180218030111 6 56 0.0 0.0 0.00 0.00 0.00 92 1018.3
20180218025909 6 0 0.0 0.0 0.00 0.00 0.00 92 1018.3
20180218025707 6 180 0.0 0.0 0.00 0.00 0.00 92 1018.5
20180218025505 6 180 0.0 0.0 0.00 0.00 0.00 92 1018.3
20180218025101 6 45 0.0 1.6 0.00 0.00 0.00 92 1018.3
20180218024858 6 180 0.0 1.6 0.00 0.00 0.00 92 1018.3
20180218024657 6 180 0.0 1.6 0.00 0.00 0.00 92 1018.3
20180218024454 6 180 0.0 1.6 0.00 0.00 0.00 92 1018.3
20180218024252 6 180 0.0 1.6 0.00 0.00 0.00 92 1018.4
20180218024050 6 180 1.6 1.6 0.00 0.00 0.00 91 1018.4
20180218023848 6 292 0.0 3.2 0.00 0.00 0.00 92 1018.4
20180218023646 6 292 0.0 3.2 0.00 0.00 0.00 92 1018.4
20180218023444 6 135 1.6 1.6 0.00 0.00 0.00 92 1018.4
20180218023242 6 180 0.0 1.6 0.00 0.00 0.00 92 1018.4
20180218023040 6 180 1.6 1.6 0.00 0.00 0.00 92 1018.3
20180218022838 6 180 0.0 0.0 0.00 0.00 0.00 91 1018.3
20180218022636 6 135 0.0 0.0 0.00 0.00 0.00 92 1018.3
20180218022433 6 292 0.0 0.0 0.00 0.00 0.00 92 1018.3
20180218022232 6 157 0.0 0.0 0.00 0.00 0.00 92 1018.4
20180218022029 6 157 0.0 0.0 0.00 0.00 0.00 92 1018.3
20180218021828 7 135 0.0 0.0 0.00 0.00 0.00 92 1018.3
20180218021625 7 135 0.0 1.6 0.00 0.00 0.00 92 1018.3
20180218021424 7 180 0.0 1.6 0.00 0.00 0.00 92 1018.4
20180218021221 7 135 0.0 0.0 0.00 0.00 0.00 92 1018.4
20180218021019 7 180 0.0 1.6 0.00 0.00 0.00 92 1018.4
20180218020817 7 270 0.0 1.6 0.00 0.00 0.00 92 1018.3
20180218020615 7 180 0.0 1.6 0.00 0.00 0.00 92 1018.4
20180218020413 7 180 0.0 3.2 0.00 0.00 0.00 92 1018.3
20180218020211 7 168 0.0 3.2 0.00 0.00 0.00 92 1018.4
20180218020009 7 180 0.0 1.6 0.00 0.00 0.00 92 1018.4
20180218015604 7 180 0.0 1.6 0.00 0.00 0.00 92 1018.4
20180218015403 7 292 0.0 1.6 0.00 0.00 0.00 92 1018.4
20180218014959 7 292 0.0 1.6 0.00 0.00 0.00 92 1018.4
20180218014756 7 180 1.6 1.6 0.00 0.00 0.00 91 1018.3
20180218014555 7 270 0.0 0.0 0.00 0.00 0.00 92 1018.4
20180218014352 7 180 0.0 0.0 0.00 0.00 0.00 92 1018.3
20180218014150 7 157 0.0 3.2 0.00 0.00 0.00 91 1018.4
20180218013948 7 135 0.0 3.2 0.00 0.00 0.00 91 1018.4
20180218013746 7 180 1.6 1.6 0.00 0.00 0.00 91 1018.3
20180218013544 7 180 0.0 1.6 0.00 0.00 0.00 91 1018.4
20180218013343 7 135 0.0 1.6 0.00 0.00 0.00 91 1018.5
20180218013140 7 292 0.0 1.6 0.00 0.00 0.00 91 1018.4
20180218012938 7 180 1.6 1.6 0.00 0.00 0.00 91 1018.4
20180218012735 7 0 1.6 1.6 0.00 0.00 0.00 91 1018.3
20180218012534 7 0 1.6 3.2 0.00 0.00 0.00 91 1018.5
20180218012331 7 292 3.2 3.2 0.00 0.00 0.00 91 1018.4
20180218012130 7 180 0.0 3.2 0.00 0.00 0.00 90 1018.3
20180218011927 7 180 0.0 1.6 0.00 0.00 0.00 90 1018.3
20180218011726 7 180 0.0 1.6 0.00 0.00 0.00 90 1018.4
20180218011523 7 180 0.0 1.6 0.00 0.00 0.00 90 1018.4
20180218011321 7 180 0.0 1.6 0.00 0.00 0.00 90 1018.4
20180218011119 7 270 1.6 1.6 0.00 0.00 0.00 90 1018.4
20180218010917 7 270 0.0 1.6 0.00 0.00 0.00 90 1018.5
20180218010311 7 337 0.0 1.6 0.00 0.00 0.00 90 1018.5
20180218010109 7 337 1.6 1.6 0.00 0.00 0.00 89 1018.6
20180218005907 7 180 0.0 1.6 0.00 0.00 0.00 89 1018.5
20180218005705 7 180 0.0 1.6 0.00 0.00 0.00 89 1018.6
20180218005502 7 180 0.0 1.6 0.00 0.00 0.00 89 1018.5
20180218005301 7 135 1.6 1.6 0.00 0.00 0.00 88 1018.6
20180218005058 7 45 0.0 1.6 0.00 0.00 0.00 88 1018.6
20180218004857 7 180 0.0 1.6 0.00 0.00 0.00 88 1018.6
20180218004654 8 0 1.6 1.6 0.00 0.00 0.00 88 1018.6
20180218004452 8 180 0.0 0.0 0.00 0.00 0.00 88 1018.6
20180218004250 8 270 0.0 1.6 0.00 0.00 0.00 88 1018.5
20180218004048 8 135 1.6 1.6 0.00 0.00 0.00 88 1018.5
20180218003846 8 180 0.0 1.6 0.00 0.00 0.00 88 1018.6
20180218003644 8 90 0.0 1.6 0.00 0.00 0.00 88 1018.6
20180218003442 8 135 1.6 3.2 0.00 0.00 0.00 88 1018.6
20180218003240 8 90 0.0 3.2 0.00 0.00 0.00 88 1018.6
20180218003038 8 180 0.0 1.6 0.00 0.00 0.00 88 1018.6
20180218002836 8 180 0.0 1.6 0.00 0.00 0.00 88 1018.6
20180218002634 8 135 1.6 1.6 0.00 0.00 0.00 88 1018.5
20180218002432 8 292 0.0 6.4 0.00 0.00 0.00 88 1018.6
20180218002229 8 22 1.6 6.4 0.00 0.00 0.00 88 1018.6
20180218002028 8 45 0.0 1.6 0.00 0.00 0.00 88 1018.6
20180218001825 8 292 0.0 4.8 0.00 0.00 0.00 88 1018.6
20180218001623 8 0 1.6 4.8 0.00 0.00 0.00 88 1018.6
20180218001421 8 180 0.0 4.8 0.00 0.00 0.00 88 1018.7
20180218001219 8 180 0.0 4.8 0.00 0.00 0.00 88 1018.6
20180218001017 8 292 0.0 4.8 0.00 0.00 0.00 87 1018.6
20180218000815 8 303 0.0 4.8 0.00 0.00 0.00 88 1018.8
20180218000613 8 180 0.0 3.2 0.00 0.00 0.00 87 1018.8
20180218000411 8 270 1.6 3.2 0.00 0.00 0.00 87 1018.6
20180218000209 8 270 0.0 1.6 0.00 0.00 0.00 87 1018.6
20180218000007 8 180 1.6 1.6 0.00 0.00 0.00 87 1018.6
20180217235603 8 0 1.6 4.8 0.00 0.00 0.00 87 1018.7
20180217235400 8 180 1.6 4.8 0.00 0.00 0.00 87 1018.6
20180217235159 8 0 0.0 3.2 0.00 0.00 0.00 87 1018.6
20180217234351 8 180 1.6 3.2 0.00 0.00 0.00 87 1018.6
20180217233138 8 0 0.0 3.2 0.00 0.00 0.00 87 1018.8
20180217232935 8 180 0.0 1.6 0.00 0.00 0.00 86 1018.8
20180217232734 8 0 0.0 1.6 0.00 0.00 0.00 86 1018.7
20180217232531 8 180 0.0 1.6 0.00 0.00 0.00 86 1018.8
20180217232330 8 180 0.0 1.6 0.00 0.00 0.00 86 1018.8
20180217232127 8 180 0.0 0.0 0.00 0.00 0.00 85 1018.8
20180217231926 8 180 0.0 1.6 0.00 0.00 0.00 86 1018.7
20180217231723 8 180 0.0 1.6 0.00 0.00 0.00 86 1018.8
20180217231521 8 180 0.0 1.6 0.00 0.00 0.00 85 1018.7
20180217231319 8 270 1.6 1.6 0.00 0.00 0.00 86 1018.7
20180217231117 8 270 1.6 1.6 0.00 0.00 0.00 86 1018.7
20180217230915 8 315 1.6 1.6 0.00 0.00 0.00 85 1018.6
20180217230713 8 45 0.0 1.6 0.00 0.00 0.00 85 1018.8
20180217230309 8 0 0.0 1.6 0.00 0.00 0.00 85 1018.7
20180217230107 8 315 0.0 1.6 0.00 0.00 0.00 85 1018.7
20180217225906 8 157 1.6 3.2 0.00 0.00 0.00 85 1018.8
20180217225702 8 0 0.0 3.2 0.00 0.00 0.00 85 1018.7
20180217225501 8 180 1.6 1.6 0.00 0.00 0.00 85 1018.8
20180217225258 8 146 1.6 4.8 0.00 0.00 0.00 85 1018.7
20180217225057 9 337 0.0 4.8 0.00 0.00 0.00 85 1018.7
20180217224854 9 135 1.6 4.8 0.00 0.00 0.00 85 1018.7
20180217224652 9 180 0.0 3.2 0.00 0.00 0.00 85 1018.6
20180217224450 9 180 0.0 3.2 0.00 0.00 0.00 85 1018.6
20180217224248 9 0 3.2 3.2 0.00 0.00 0.00 85 1018.6
20180217224046 9 180 0.0 4.8 0.00 0.00 0.00 85 1018.6
20180217223844 9 180 1.6 4.8 0.00 0.00 0.00 85 1018.7
20180217223642 9 337 4.8 4.8 0.00 0.00 0.00 85 1018.7
20180217223440 9 180 0.0 3.2 0.00 0.00 0.00 85 1018.7
20180217223237 9 180 0.0 4.8 0.00 0.00 0.00 85 1018.7
20180217223036 9 337 1.6 4.8 0.00 0.00 0.00 85 1018.8
20180217222833 9 180 1.6 4.8 0.00 0.00 0.00 85 1018.7
20180217222632 9 0 1.6 4.8 0.00 0.00 0.00 85 1018.7
20180217222429 9 135 1.6 4.8 0.00 0.00 0.00 85 1018.6
20180217222228 9 337 1.6 3.2 0.00 0.00 0.00 85 1018.7
20180217222025 9 146 0.0 3.2 0.00 0.00 0.00 85 1018.6
20180217221824 9 337 3.2 3.2 0.00 0.00 0.00 85 1018.6
20180217221621 9 202 1.6 4.8 0.00 0.00 0.00 85 1018.5
20180217221419 9 337 1.6 4.8 0.00 0.00 0.00 85 1018.6
20180217221217 9 112 0.0 4.8 0.00 0.00 0.00 85 1018.5
20180217221015 9 180 4.8 4.8 0.00 0.00 0.00 85 1018.5
20180217220813 8 337 3.2 3.2 0.00 0.00 0.00 86 1018.5
20180217220611 8 180 1.6 3.2 0.00 0.00 0.00 86 1018.5
20180217220409 8 180 0.0 3.2 0.00 0.00 0.00 86 1018.5
20180217215800 8 180 1.6 3.2 0.00 0.00 0.00 85 1018.5
20180217215557 8 270 1.6 1.6 0.00 0.00 0.00 85 1018.5
20180217215356 8 337 0.0 3.2 0.00 0.00 0.00 85 1018.5
20180217215153 8 337 0.0 3.2 0.00 0.00 0.00 85 1018.3
20180217214952 8 180 3.2 3.2 0.00 0.00 0.00 85 1018.4
20180217214749 8 180 0.0 1.6 0.00 0.00 0.00 84 1018.4
20180217214547 8 180 0.0 1.6 0.00 0.00 0.00 85 1018.4
20180217214345 8 180 1.6 4.8 0.00 0.00 0.00 85 1018.5
20180217214143 9 180 1.6 4.8 0.00 0.00 0.00 85 1018.5
20180217213941 9 180 0.0 1.6 0.00 0.00 0.00 85 1018.4
20180217213739 9 337 1.6 1.6 0.00 0.00 0.00 85 1018.5
20180217213537 9 90 0.0 3.2 0.00 0.00 0.00 85 1018.5
20180217213335 9 180 0.0 3.2 0.00 0.00 0.00 85 1018.5
20180217213132 8 180 0.0 3.2 0.00 0.00 0.00 85 1018.6
20180217212931 8 0 1.6 3.2 0.00 0.00 0.00 85 1018.6
20180217212728 8 180 0.0 1.6 0.00 0.00 0.00 85 1018.6
20180217212527 8 270 0.0 1.6 0.00 0.00 0.00 85 1018.5
20180217212324 8 135 0.0 1.6 0.00 0.00 0.00 85 1018.6
20180217212122 9 135 0.0 4.8 0.00 0.00 0.00 85 1018.6
20180217211920 9 303 0.0 4.8 0.00 0.00 0.00 85 1018.7
20180217211718 9 157 4.8 4.8 0.00 0.00 0.00 84 1018.7
20180217211516 9 337 0.0 0.0 0.00 0.00 0.00 84 1018.7
20180217211314 9 180 0.0 0.0 0.00 0.00 0.00 84 1018.7
20180217211113 9 180 0.0 0.0 0.00 0.00 0.00 83 1018.7
20180217210910 9 180 0.0 0.0 0.00 0.00 0.00 83 1018.6
20180217210708 9 270 0.0 0.0 0.00 0.00 0.00 83 1018.7
20180217210506 9 270 0.0 1.6 0.00 0.00 0.00 83 1018.6
20180217210102 10 90 0.0 0.0 0.00 0.00 0.00 83 1018.7
20180217205859 10 270 0.0 0.0 0.00 0.00 0.00 83 1018.6
20180217205658 10 90 0.0 0.0 0.00 0.00 0.00 83 1018.6
20180217205455 10 180 0.0 0.0 0.00 0.00 0.00 82 1018.6
20180217205254 10 135 0.0 0.0 0.00 0.00 0.00 82 1018.5
20180217205051 10 168 0.0 1.6 0.00 0.00 0.00 82 1018.5
20180217204849 10 180 0.0 1.6 0.00 0.00 0.00 82 1018.6
20180217204647 10 90 0.0 1.6 0.00 0.00 0.00 82 1018.4
20180217204445 10 135 1.6 1.6 0.00 0.00 0.00 82 1018.5
20180217204243 10 90 0.0 1.6 0.00 0.00 0.00 82 1018.5
20180217204041 10 157 0.0 1.6 0.00 0.00 0.00 82 1018.5
20180217203839 10 157 0.0 1.6 0.00 0.00 0.00 82 1018.5
20180217203637 10 337 1.6 1.6 0.00 0.00 0.00 81 1018.6
20180217203435 10 0 0.0 1.6 0.00 0.00 0.00 82 1018.7
20180217203233 10 337 0.0 4.8 0.00 0.00 0.00 82 1018.6
20180217203030 10 157 0.0 4.8 0.00 0.00 0.00 82 1018.6
20180217202829 10 270 1.6 6.4 0.00 0.00 0.00 83 1018.6
20180217202626 10 337 1.6 6.4 0.00 0.00 0.00 82 1018.7
20180217202425 10 348 1.6 8.0 0.00 0.00 0.00 82 1018.7
20180217202222 10 180 3.2 8.0 0.00 0.00 0.00 82 1018.7
20180217202021 10 180 0.0 4.8 0.00 0.00 0.00 82 1018.7
20180217201818 10 157 0.0 3.2 0.00 0.00 0.00 82 1018.7
20180217201616 10 337 1.6 4.8 0.00 0.00 0.00 81 1018.6
20180217201414 10 135 0.0 4.8 0.00 0.00 0.00 82 1018.7
20180217201212 10 0 0.0 1.6 0.00 0.00 0.00 82 1018.6
20180217200808 11 270 0.0 3.2 0.00 0.00 0.00 81 1018.6
20180217200606 11 303 0.0 3.2 0.00 0.00 0.00 81 1018.6
20180217200404 11 157 0.0 6.4 0.00 0.00 0.00 81 1018.5
20180217200201 11 180 0.0 6.4 0.00 0.00 0.00 81 1018.5
20180217200000 11 157 0.0 6.4 0.00 0.00 0.00 81 1018.5
20180217195757 11 303 4.8 6.4 0.00 0.00 0.00 81 1018.4
20180217195556 11 337 1.6 4.8 0.00 0.00 0.00 81 1018.4
20180217195353 11 157 0.0 8.0 0.00 0.00 0.00 82 1018.4
20180217195152 11 157 0.0 8.0 0.00 0.00 0.00 82 1018.5
20180217194950 11 157 3.2 8.0 0.00 0.00 0.00 82 1018.4
20180217194747 11 180 3.2 4.8 0.00 0.00 0.00 80 1018.4
20180217194545 11 135 1.6 4.8 0.00 0.00 0.00 81 1018.3
20180217194343 11 337 3.2 4.8 0.00 0.00 0.00 81 1018.4
20180217193939 11 337 0.0 4.8 0.00 0.00 0.00 81 1018.4
20180217193737 11 0 0.0 3.2 0.00 0.00 0.00 81 1018.3
20180217193535 11 22 1.6 4.8 0.00 0.00 0.00 80 1018.3
20180217193332 11 303 1.6 4.8 0.00 0.00 0.00 81 1018.3
20180217193131 11 180 0.0 6.4 0.00 0.00 0.00 81 1018.3
20180217192928 11 270 1.6 6.4 0.00 0.00 0.00 80 1018.3
20180217192727 11 157 4.8 4.8 0.00 0.00 0.00 80 1018.2
20180217192524 11 22 0.0 6.4 0.00 0.00 0.00 80 1018.3
20180217192323 11 45 0.0 6.4 0.00 0.00 0.00 80 1018.4
20180217192120 11 157 6.4 6.4 0.00 0.00 0.00 80 1018.2
20180217191918 11 337 0.0 1.6 0.00 0.00 0.00 80 1018.3
20180217191716 11 270 0.0 3.2 0.00 0.00 0.00 80 1018.3
20180217191514 11 180 0.0 3.2 0.00 0.00 0.00 79 1018.3
20180217191312 11 180 0.0 3.2 0.00 0.00 0.00 80 1018.3
20180217191110 11 45 0.0 1.6 0.00 0.00 0.00 80 1018.4
20180217190908 11 78 0.0 3.2 0.00 0.00 0.00 80 1018.3
20180217190706 11 270 0.0 3.2 0.00 0.00 0.00 80 1018.3
20180217190503 11 303 0.0 4.8 0.00 0.00 0.00 79 1018.2
20180217190059 12 157 0.0 6.4 0.00 0.00 0.00 78 1018.2
20180217185858 12 180 4.8 8.0 0.00 0.00 0.00 78 1018.2
20180217185454 12 0 3.2 8.0 0.00 0.00 0.00 78 1018.1
20180217185251 12 270 6.4 8.0 0.00 0.00 0.00 78 1018.1
20180217185050 12 303 3.2 8.0 0.00 0.00 0.00 79 1018.1
20180217184847 12 180 1.6 8.0 0.00 0.00 0.00 80 1018.0
20180217184645 12 180 1.6 6.4 0.00 0.00 0.00 80 1018.0
20180217184443 12 157 3.2 6.4 0.00 0.00 0.00 80 1018.1
20180217184241 12 337 3.2 6.4 0.00 0.00 0.00 80 1018.0
20180217184039 12 157 0.0 6.4 0.00 0.00 0.00 80 1018.0
20180217183837 12 0 0.0 1.6 0.00 0.00 0.00 80 1018.0
20180217183634 12 337 0.0 3.2 0.00 0.00 0.00 79 1018.1
20180217183433 12 157 0.0 3.2 0.00 0.00 0.00 80 1018.0
20180217183230 12 157 3.2 3.2 0.00 0.00 0.00 79 1017.9
20180217183029 12 270 0.0 3.2 0.00 0.00 0.00 78 1018.0
20180217182826 12 270 1.6 3.2 0.00 0.00 0.00 78 1017.9
20180217182625 13 337 0.0 3.2 0.00 0.00 0.00 78 1017.9
20180217182422 13 157 0.0 3.2 0.00 0.00 0.00 78 1017.9
20180217182220 13 0 0.0 3.2 0.00 0.00 0.00 78 1017.9
20180217182018 13 337 0.0 3.2 0.00 0.00 0.00 78 1017.9
20180217181816 13 157 3.2 3.2 0.00 0.00 0.00 78 1017.9